Volver al catálogo

SL-8 R/B

ActivoPO
NORAD 17526·ROCKET BODY·🇷🇺 Russia

Lanzado Feb 18, 1987 desde Plesetsk Cosmodrome

Loading…

Próximos Pases (próximas 24 horas)

TLE

ActualizadoSource: Space-Track

Época: Sep 14, 2026, 19:44 UTC

1 17526U 87017B   26257.82257977 -.00000005  00000-0 -19750-4 0  9996
2 17526  82.9007  35.9519 0039175 233.9686 125.7838 13.77236410970658

Sigue SL-8 R/B en tiempo real con AllMySat

Download on the App Store